Weather Roundup
Issued by NWS

Home | Current Version | Previous Version | Graphics & Text | Print | Product List | Glossary Off
Versions: 1 2 3 4 5 6 7 8 9 10 11 12 13 14 15 16 17 18 19 20 21 22 23 24 25 26 27 28 29 30 31 32 33 34 35 36 37 38 39 40 41 42 43 44 45 46 47 48 49 50

000
NZUS93 KARX 300010
HRRWXR

CURRENT HOURLY OBSERVATIONS ACROSS
MUCH OF THE UPPER MISSISSIPPI VALLEY
NATIONAL WEATHER SERVICE LA CROSSE WI
700 PM CDT MON SEP 29 2014


...SOUTHEAST MINNESOTA...


CITY           SKY/WX    TMP DP  RH WIND       PRES   REMARKS
ROCHESTER      PTCLDY    55  48  77 NE9       30.08F
ROCHESTER/MAYO MOCLDY    56  46  70 N7        30.08S
WINONA         CLOUDY    57  48  72 NE3       30.08R
AUSTIN         CLEAR     55  48  76 NE8       30.06S
ALBERT LEA     CLEAR     57  50  77 NE10      30.06S
DODGE CENTER   CLOUDY    55  48  76 NE10      30.08S
PRESTON        PTCLDY    52  48  86 NE9       30.07S
OWATONNA       MOCLDY    55  46  71 NE10G16   30.08S
FARIBAULT      CLOUDY    59  45  58 N12       30.09S
$$

...ELSEWHERE IN MINNESOTA...


CITY           SKY/WX    TMP DP  RH WIND       PRES   REMARKS
MINNEAPOLIS    PTCLDY    55  45  68 N8        30.11S
INTNL FALLS    CLOUDY    46  40  79 E6        30.19F
DULUTH         CLOUDY    44  38  79 E9        30.19S
RED WING       CLEAR     55  46  71 CALM      30.09R
REDWOOD FALLS  CLEAR     56  48  74 E6        30.08S
MANKATO        CLOUDY    55  45  67 NE8G16    30.08S
WORTHINGTON    CLEAR     63  54  72 E8        30.04S
FAIRMONT       CLEAR     61  48  63 NE8       30.05S
$$

...SOUTHWEST WISCONSIN...


CITY           SKY/WX    TMP DP  RH WIND       PRES   REMARKS
LA CROSSE      CLOUDY    58  50  75 N10       30.06S
PRAIRIE DU CHI PTCLDY    61  51  71 N9        30.02R
BOSCOBEL       CLOUDY    59  52  77 NE9G17    30.03R
LONE ROCK      CLOUDY    60  50  69 NE12      30.04R
PLATTEVILLE    PTCLDY    63  56  80 N15G21    30.00R
FORT MC COY    CLOUDY    55  48  78 NE6       30.07F
CAMP DOUGLAS   CLOUDY    53  53 100 NE5       30.07S
VIROQUA        CLOUDY    53  51  90 N7        30.06S
WIS DELLS      CLOUDY    52  49  92 NE8G16    30.05S
$$

...ELSEWHERE IN WISCONSIN...


CITY           SKY/WX    TMP DP  RH WIND       PRES   REMARKS
MILWAUKEE      LGT RAIN  52  48  86 N17G26    30.03R
MADISON        CLOUDY    54  52  93 NE10      30.03R
GREEN BAY      CLOUDY    50  47  89 N8        30.08R
EAU CLAIRE     CLEAR     53  42  66 N7        30.09R
BLACK RVR FLS  FAIR      52  47  84 CALM      30.06F
MEDFORD        CLEAR     45  39  78 NE9G16    30.10S
WAUSAU         PTCLDY    49  41  74 NE7       30.09R
WIS RAPIDS     CLOUDY    54  44  69 N10       30.09S
MARSHFIELD     CLEAR     52  43  71 NE9       30.08R
RICE LAKE      CLEAR     48  41  74 N12       30.14S
$$

...NORTHEAST IOWA...


CITY           SKY/WX    TMP DP  RH WIND       PRES   REMARKS
DECORAH        CLOUDY    55  50  82 VRB7G16   30.04R
MASON CITY     CLEAR     61  54  77 NE7       30.05S
CHARLES CITY   CLEAR     61  54  77 NE9       30.03S
OELWEIN        CLEAR     64  57  77 NE10      30.00S
$$

...ELSEWHERE IN IOWA...


CITY           SKY/WX    TMP DP  RH WIND       PRES   REMARKS
DES MOINES     MOCLDY    78  63  59 NE3       29.96S
IOWA CITY      CLEAR     73  61  65 W5        29.95S
FORT DODGE     CLOUDY    63  57  82 NE8       30.02S
$$

...NORTHERN ILLINOIS...


CITY           SKY/WX    TMP DP  RH WIND       PRES   REMARKS
CHICAGO-OHARE  CLOUDY    60  55  83 NE20      29.97R
CHICAGO-MIDWAY MOCLDY    65  59  81 N17G28    29.96R
MOLINE         NOT AVBL
ROCKFORD       PTCLDY    72  59  63 N12       29.95R
PEORIA         CLEAR     75  59  57 CALM      29.95S
$$

NOTE: "FAIR" INDICATES FEW OR NO CLOUDS BELOW 12,000 FEET WITH NO
SIGNIFICANT WEATHER AND/OR OBSTRUCTIONS TO VISIBILITY. WIND
SPEEDS ARE IN MILES-PER-HOUR.



USA.gov is the U.S. government's official web portal to all federal, state and local government web resources and services.